Weather History for Erzurum, Turkey

Change the Weather History Date:

Friday, July 5, 2013

  Actual Average Record
Temperature  
Mean Temperature 66 °F -  
Max Temperature 81 °F 79 °F 87 °F (2000)
Min Temperature 50 °F 53 °F 36 °F (2012)
Growing Degree Days 16 (Base 50)    
Moisture  
Dew Point 48 °F    
Average Humidity 52    
Maximum Humidity 94    
Minimum Humidity 20    
Precipitation  
Precipitation 0.00 in 0.03 in - ()
Sea Level Pressure  
Sea Level Pressure 29.99 in    
Wind  
Wind Speed 11 mph ()    
Max Wind Speed 20 mph    
Max Gust Speed -    
Visibility 6.9 miles    
Events Rain , Thunderstorm    
Averages and records for this station are not official NWS values.
T = Trace of Precipitation, MM = Missing Value Source: Averaged Metar Reports

Daily Weather History Graph

Daily Weather History Graph

Search for Another Location

Airport:

Trip Planner

Search our weather history database for the weather conditions in past years. The results will help you decide how hot, cold, wet, or windy it might be!

Date:

Astronomy

Jul. 05, 2013 Rise Set
Actual Time 4:52 AM EEST 7:47 PM EEST
Civil Twilight 4:19 AM EEST 8:19 PM EEST
Nautical Twilight 3:38 AM EEST 9:00 PM EEST
Astronomical Twilight 2:51 AM EEST 9:47 PM EEST
Moon 2:35 AM EEST (7/5) 5:24 PM EEST (7/5)
Length of Visible Light 15h 59m
Length of Day
14h 54m
Waning Crescent, 8% of the Moon is Illuminated
Jul 5
Waning Crescent
Jul 8
New
Jul 16
First Quarter
Jul 22
Full
Jul 29
Last Quarter

Hourly Weather History & Observations

Time (EEST) Temp. Dew Point Humidity Pressure Visibility Wind Dir Wind Speed Gust Speed Precip Events Conditions
12:20 AM 60.8 °F 46.4 °F 59% 30.01 in - East 18.4 mph - N/A   Clear
12:50 AM 60.8 °F 46.4 °F 59% 30.01 in - East 16.1 mph - N/A   Clear
1:20 AM 59.0 °F 46.4 °F 63% 30.01 in - East 13.8 mph - N/A   Clear
1:50 AM 59.0 °F 46.4 °F 63% 30.01 in - East 12.7 mph - N/A   Clear
2:20 AM 57.2 °F 46.4 °F 67% 30.01 in - East 10.4 mph - N/A   Clear
2:50 AM 57.2 °F 46.4 °F 67% 30.01 in - East 11.5 mph - N/A   Clear
3:00 AM 57 °F 47 °F 60%  in 12 mi East 11.5 mph - -  
3:20 AM 53.6 °F 46.4 °F 77% 30.01 in - NE 5.8 mph - N/A   Clear
3:50 AM 51.8 °F 46.4 °F 82% 30.01 in - NNE 5.8 mph - N/A   Clear
4:20 AM 51.8 °F 46.4 °F 82% 30.01 in - NNE 6.9 mph - N/A   Clear
4:50 AM 50.0 °F 48.2 °F 94% 30.01 in - NE 5.8 mph - N/A   Clear
5:20 AM 50.0 °F 46.4 °F 87% 30.04 in - ENE 4.6 mph - N/A   Clear
5:50 AM 53.6 °F 48.2 °F 82% 30.04 in - NE 5.8 mph - N/A   Clear
6:20 AM 59.0 °F 48.2 °F 67% 30.01 in - NE 8.1 mph - N/A   Clear
6:50 AM 60.8 °F 48.2 °F 63% 30.01 in - ENE 12.7 mph - N/A   Clear
7:20 AM 60.8 °F 48.2 °F 63% 30.01 in - East 15.0 mph - N/A   Clear
7:50 AM 62.6 °F 48.2 °F 59% 30.01 in - East 16.1 mph - N/A   Clear
8:20 AM 62.6 °F 46.4 °F 55% 30.01 in - East 16.1 mph - N/A   Clear
8:50 AM 66.2 °F 46.4 °F 49% 30.01 in - ENE 19.6 mph - N/A   Clear
9:00 AM 65 °F 46 °F 40%  in 12 mi ENE 19.6 mph - -  
9:20 AM 66.2 °F 48.2 °F 52% 30.01 in - East 18.4 mph - N/A   Clear
9:50 AM 68.0 °F 48.2 °F 49% 30.01 in 6.2 mi East 18.4 mph - N/A   Partly Cloudy
10:20 AM 68.0 °F 48.2 °F 49% 30.01 in 6.2 mi East 18.4 mph - N/A   Partly Cloudy
10:50 AM 69.8 °F 48.2 °F 46% 29.98 in 6.2 mi East 17.3 mph - N/A   Partly Cloudy
11:20 AM 71.6 °F 48.2 °F 43% 29.98 in 6.2 mi ENE 16.1 mph - N/A   Partly Cloudy
11:50 AM 73.4 °F 48.2 °F 41% 29.98 in 6.2 mi East 16.1 mph - N/A   Partly Cloudy
12:20 PM 73.4 °F 48.2 °F 41% 29.98 in 6.2 mi East 15.0 mph - N/A   Partly Cloudy
12:50 PM 75.2 °F 48.2 °F 38% 29.98 in 6.2 mi East 13.8 mph - N/A   Scattered Clouds
1:20 PM 77.0 °F 50.0 °F 39% 29.95 in 6.2 mi East 11.5 mph - N/A   Scattered Clouds
1:50 PM 78.8 °F 48.2 °F 34% 29.95 in 6.2 mi NE 9.2 mph - N/A   Scattered Clouds
2:20 PM 78.8 °F 48.2 °F 34% 29.95 in 6.2 mi NE 6.9 mph - N/A   Scattered Clouds
2:50 PM 78.8 °F 46.4 °F 32% 29.95 in 6.2 mi Variable 4.6 mph - N/A   Scattered Clouds
3:00 PM 80 °F 46 °F 20%  in 12 mi ESE 4.6 mph - -   Partly Cloudy
3:11 PM 77.0 °F 46.4 °F 34% 29.95 in 6.2 mi East 4.6 mph - N/A Rain Light Rain Showers
3:20 PM 77.0 °F 46.4 °F 34% 29.95 in 6.2 mi ENE 4.6 mph - N/A Rain Light Rain Showers
3:28 PM 77.0 °F 48.2 °F 36% 29.95 in 6.2 mi Variable 3.5 mph - N/A Thunderstorm Thunderstorm
3:50 PM 78.8 °F 46.4 °F 32% 29.95 in 6.2 mi NW 4.6 mph - N/A   Scattered Clouds
4:20 PM 78.8 °F 46.4 °F 32% 29.92 in 6.2 mi NE 5.8 mph - N/A   Scattered Clouds
4:50 PM 77.0 °F 50.0 °F 39% 29.92 in 6.2 mi East 10.4 mph - N/A   Scattered Clouds
5:20 PM 78.8 °F 48.2 °F 34% 29.92 in 6.2 mi East 6.9 mph - N/A   Scattered Clouds
5:50 PM 77.0 °F 46.4 °F 34% 29.92 in 6.2 mi East 4.6 mph - N/A   Scattered Clouds
6:20 PM 77.0 °F 46.4 °F 34% 29.92 in 6.2 mi ESE 4.6 mph - N/A   Scattered Clouds
6:50 PM 77.0 °F 51.8 °F 41% 29.92 in 6.2 mi East 5.8 mph - N/A   Scattered Clouds
7:20 PM 71.6 °F 53.6 °F 53% 29.95 in 6.2 mi East 10.4 mph - N/A   Scattered Clouds
7:50 PM 69.8 °F 51.8 °F 53% 29.95 in 6.2 mi East 11.5 mph - N/A   Scattered Clouds
8:20 PM 68.0 °F 51.8 °F 56% 29.98 in 6.2 mi East 12.7 mph - N/A   Scattered Clouds
8:50 PM 66.2 °F 50.0 °F 56% 29.98 in 6.2 mi East 10.4 mph - N/A   Scattered Clouds
9:00 PM 66 °F 49 °F 43%  in 12 mi East 10.4 mph - -   Partly Cloudy
9:20 PM 66.2 °F 48.2 °F 52% 30.01 in 6.2 mi East 10.4 mph - N/A   Scattered Clouds
9:50 PM 66.2 °F 46.4 °F 49% 30.01 in 6.2 mi East 12.7 mph - N/A   Scattered Clouds
10:20 PM 64.4 °F 48.2 °F 56% 30.01 in - East 11.5 mph - N/A   Clear
10:50 PM 64.4 °F 48.2 °F 56% 30.01 in - East 11.5 mph - N/A   Clear
11:20 PM 62.6 °F 48.2 °F 59% 30.04 in - East 9.2 mph - N/A   Clear
11:50 PM 62.6 °F 48.2 °F 59% 30.04 in - East 9.2 mph - N/A   Clear